sat.trackr.live / text

‹ back to catalog

STARLINK-30164

NORAD 57500 · 2023-113F

PAYLOAD ACTIVE UNKNOWN

§ Identity

Operator
Country
US
Launch date
2023-08-07
Launch site
AFETR
Launch vehicle
Mass (kg)
RCS (m²)

Purposes: comms

External: N2YO · Heavens-Above · Gunter

§ Orbital elements

Epoch: 2026-09-20T17:27:01.589472Z

Period
94.26 min
Inclination
43.0047°
Eccentricity
0.0001942
Mean motion
15.27609588 rev/d
Perigee alt
481.6 km
Apogee alt
484.3 km
Semi-major
6,861.1 km
B*
-2.1159e-4
RAAN
354.6013°
Arg perigee
275.1346°
Mean anomaly
84.9284°
Rev number
17,350

§ Raw data

STARLINK-301641 57500U 23113F   26263.72710173 -.00006086  00000+0 -21159-3 0  99962 57500  43.0047 354.6013 0001942 275.1346  84.9284 15.27609588173505

JSON: /api/v1/satellites/57500 · /tle

For live sub-satellite position, see the globe view (requires WebGL).

§ Visibility from observer

Set your observer location to see the next 7 days of passes ≥ 10°. The values pass through the URL so the page stays shareable.

No JS? Fill the form by hand. The geolocation button needs JavaScript.